Weather in Petrovka

Russia / Tomsk District     57°11′30″N   83°55′37″E
temp.,
°C
wind,
m/s
gust,
m/s
humid.,
%
clouds,
%
prec.,
mm/h
press.,
hPa
HPBL,
m
8 may, sat
sat801:00+7wsw346339 0.0 101377
04:00+6wsw3107167 0.0 1014249
07:00+7w512663 0.0 1014599
10:00+11w712425 0.0 10141805
13:00+13wnw7133368 0.0 10132365
16:00+14nw71334100 0.0 10122401
19:00+11n695151 0.0 10141402
22:00+6nnw49615 0.0 1017580
9 may, sun
sun901:00+4nw38705 0.0 1018399
04:00+2nw37815 0.0 1019250
07:00+3nnw37805 0.0 1020290
10:00+7n45575 0.0 10211082
13:00+11n454478 0.0 10211792
16:00+12nne564362 0.0 10221850
19:00+10nne565018 0.0 10231412
22:00+6ne26677 0.0 1024144
10 may, mon
mon1001:00+5ne236915 0.0 102549
04:00+5ne257193 0.0 1025136
07:00+6ne376995 0.0 1025270
10:00+9ene3449100 0.0 10251539
13:00+11ne354374 0.0 10241748
16:00+14ne453655 0.0 10222060
19:00+14ene453978 0.0 10212139
22:00+10e386110 0.0 1021305
11 may, tue
tue1101:00+6ne257352 0.0 102186
04:00+7nne377591 0.1 1020224
07:00+7nne377589 0.1 1020240
10:00+11ne465579 0.0 1019740
13:00+14ne5740100 0.0 10182327
16:00+15ne563990 0.0 10182043
19:00+15nne464151 0.0 10181850
22:00+11nne4105598 0.0 1018237
12 may, wed
wed1201:00+8n386988 0.0 1018206
04:00+6nne3678100 0.0 1018133
07:00+8nne2574100 0.0 1018150
10:00+12ene3456100 0.0 1018675
13:00+15ene4442100 0.1 10182321
16:00+14ne4443100 0.0 10181668
19:00+15n3442100 0.0 10181416
22:00+10n3760100 0.0 1019130